Retour au catalogue

COSMOS 1375 DEB

ActifLEO
NORAD 27803·DEBRIS·🇷🇺 Russia

Lancé Jun 6, 1982 depuis Plesetsk Cosmodrome

Loading…

Prochains Passages (prochaines 24 heures)

TLE

FraisSource: Space-Track

Époque: Sep 13, 2026, 01:25 UTC

1 27803U 82055BQ  26256.05957733  .00000764  00000-0  52744-3 0  9992
2 27803  65.8121 243.5477 0023012   1.7525  60.9994 14.04951814804360

Suivez COSMOS 1375 DEB en temps réel avec AllMySat

Download on the App Store